Regional Weather Roundup
Issued by NWS

Home | Current Version | Previous Version | Graphics & Text | Print | Product List | Glossary On
Versions: 1 2 3 4 5 6 7 8 9 10 11 12 13 14 15 16 17 18 19 20 21 22 23 24 25 26 27 28 29 30 31 32 33 34 35 36 37 38 39 40 41 42 43 44 45 46 47 48 49 50
000
ASUS45 KBOI 280110
RWRID
WEATHER ROUNDUP FOR IDAHO
NATIONAL WEATHER SERVICE BOISE ID
700 PM MDT SUN JUL 27 2014

NOTE: "FAIR" INDICATES FEW OR NO CLOUDS BELOW 12000 FEET
WITH NO SIGNIFICANT WEATHER AND/OR OBSTRUCTIONS TO VISIBILITY

IDZ012-014-280200-
SOUTHWEST IDAHO


CITY           SKY/WX    TMP DP  RH WIND       PRES   REMARKS
BOISE          MOSUNNY   98  35  11 N7        29.99F HX  93
CALDWELL       MOSUNNY   97  52  21 NW5       29.98F HX  94
MOUNTAIN HOME  PTSUNNY   99  25   7 N6        29.98F HX  92
$$

IDZ016-017-280200-
SOUTHCENTRAL IDAHO


CITY           SKY/WX    TMP DP  RH WIND       PRES   REMARKS
BURLEY         MOSUNNY   90  44  20 N7        30.06F
JEROME         MOSUNNY   93  57  29 MISG      30.08F HX  91
TWIN FALLS     PTSUNNY   95  41  15 NW5       30.08F HX  91
$$

IDZ019>023-280200-
SOUTHEAST IDAHO


CITY           SKY/WX    TMP DP  RH WIND       PRES   REMARKS
IDAHO FALLS    MOSUNNY   94  29  10 NE8       30.16F
POCATELLO      MOSUNNY   95  28   9 N7        30.12F
REXBURG        MOSUNNY   90  27  10 S5        30.18F
$$

IDZ006-010-011-018-031-032-280200-
CENTRAL IDAHO MOUNTAINS


CITY           SKY/WX    TMP DP  RH WIND       PRES   REMARKS
MCCALL         MOSUNNY   89  26  10 N5        30.18F
HAILEY         PTSUNNY   86  48  26 SE10      30.19F
STANLEY          N/A     85  20   9 S7        30.28F
SALMON         MOSUNNY   91  28  10 NW3       30.06F
CHALLIS        SUNNY     93  23   8 N6        30.15F
$$

IDZ002-004-006-007-026-280200-
NORTHERN IDAHO


CITY           SKY/WX    TMP DP  RH WIND       PRES   REMARKS
LEWISTON       PTSUNNY   98  38  12 W9        29.98S HX  93
LOWELL           N/A     84  52  33 N3        29.97S
COEUR D`ALENE  PTSUNNY   88  39  18 CALM      30.08F
MULLAN PASS    MOSUNNY   72  33  24 CALM      30.35F
$$



USA.gov is the U.S. government's official web portal to all federal, state and local government web resources and services.